Printer-friendly version
Follow the MPC on Twitter Follow the MPC on Facebook The MPC blog
Minor Planet Center

MPEC 2010-R09 : 2010 RE

The following Minor Planet Electronic Circular may be linked-to from your own Web pages, but must not otherwise be redistributed electronically.

A form allowing access to any MPEC is at the bottom of this page.


Read MPEC 2010-R08 Read MPEC 2010-R10


M.P.E.C. 2010-R09                                Issued 2010 Sept. 2, 13:11 UT

     The Minor Planet Electronic Circulars contain information on unusual
         minor planets and routine data on comets.  They are published
   on behalf of Commission 20 of the International Astronomical Union by the
          Minor Planet Center, Smithsonian Astrophysical Observatory,
                          Cambridge, MA 02138, U.S.A.

             Prepared using the Tamkin Foundation Computer Network

                              MPC@CFA.HARVARD.EDU
       URL http://www.minorplanetcenter.org/iau/mpc.html  ISSN 1523-6714

                                    2010 RE

Observations:
     K10R00E* C2010 09 01.39259 22 38 02.61 -06 12 07.5          20.8 V ER009G96
     K10R00E  C2010 09 01.39861 22 38 02.43 -06 13 20.1          20.1 V ER009G96
     K10R00E  C2010 09 01.40388 22 38 02.32 -06 14 25.0          21.7 V ER009G96
     K10R00E  C2010 09 01.40912 22 38 02.14 -06 15 29.2          20.4 V ER009G96
     K10R00E  C2010 09 01.44370 22 38 01.34 -06 22 28.9          21.3 V ER009G96
     K10R00E  C2010 09 01.44564 22 38 01.29 -06 22 51.6          21.5 V ER009G96
     K10R00E  C2010 09 01.44871 22 38 01.28 -06 23 28.7          20.6 V ER009G96
     K10R00E  C2010 09 01.45150 22 38 01.33 -06 24 03.4          21.7 V ER009G96
     K10R00E  C2010 09 01.45289 22 38 01.15 -06 24 19.7          22.0 V ER009G96
     K10R00E KC2010 09 01.93978 22 38 27.35 -08 00 24.8                 ER009J95
     K10R00E KC2010 09 01.95475 22 38 26.94 -08 03 14.2          20.9 R ER009J95
     K10R00E  C2010 09 02.22484 22 38 37.21 -08 52 21.4          20.9 V ER009G96
     K10R00E  C2010 09 02.23138 22 38 36.92 -08 53 32.7          21.0 V ER009G96
     K10R00E  C2010 09 02.23795 22 38 36.74 -08 54 44.3          20.4 V ER009G96
     K10R00E  C2010 09 02.24456 22 38 36.45 -08 55 56.3          21.0 V ER009G96

Observer details:
G96 Mt. Lemmon Survey.  Observers A. R. Gibbs, A. Boattini.  Measurers
    J. D. Ahern, E. C. Beshore, A. Boattini, G. J. Garradd, A. R. Gibbs,
    A. D. Grauer, R. E. Hill, R. A. Kowalski, S. M. Larson, R. H. McNaught.
    1.5-m reflector + CCD.
J95 Great Shefford.  Observer P. Birtwhistle.  0.40-m f/6.0 Schmidt-Cassegrain
    + CCD.

Orbital elements:
2010 RE                                                  Earth MOID = 0.0243 AU
Epoch 2010 July 23.0 TT = JDT 2455400.5                 MPC
M  46.19704              (2000.0)            P               Q
n   0.93424910     Peri.   73.73688     -0.59610145     +0.80139332
a   1.0363209      Node   159.43327     -0.77980866     -0.56323143
e   0.1892593      Incl.    8.06953     -0.19121065     -0.20134324
P   1.05           H   27.5           G   0.15           U   8
Residuals in seconds of arc
100901 G96  0.1+  0.4-    100901 G96  0.5-  0.5+    100901 J95  1.0-  0.1+
100901 G96  0.2+  0.6+    100901 G96  0.0   0.5+    100902 G96  1.0+  0.0
100901 G96  0.8+  0.0     100901 G96  1.4+  0.5-    100902 G96  0.1+  0.1+
100901 G96  0.3+  0.4-    100901 G96  1.1-  0.0     100902 G96  0.9+  0.1+
100901 G96  0.2-  0.3-    100901 J95  0.4+  0.2-    100902 G96  0.2+  0.0

Ephemeris:
2010 RE                  a,e,i = 1.04, 0.19, 8                   q = 0.8402
Date    TT    R. A. (2000) Decl.     Delta      r     Elong.  Phase     V
2010 09 01    22 37.94   -04 47.1    0.0421   1.051   176.3     3.5    21.1
2010 09 03    22 38.86   -11 02.7    0.0488   1.058   176.1     3.7    21.4
2010 09 05    22 39.57   -15 43.9    0.0561   1.064   170.5     9.0    22.0
2010 09 07    22 40.16   -19 17.7    0.0638   1.070   166.0    13.2    22.4
2010 09 09    22 40.69   -22 02.6    0.0718   1.076   162.1    16.7    22.8
2010 09 11    22 41.21   -24 11.3    0.0801   1.082   158.8    19.6    23.2

Sonia Keys                   (C) Copyright 2010 MPC           M.P.E.C. 2010-R09

Read MPEC 2010-R08 Read MPEC 2010-R10


MPEC number:

Enter an MPEC number in one of the following forms:

  • 1997-B01 (the full form)
  • J97B01 (the packed version of the full form)
  • B01 (the abbreviated form)

Valid HTML 4.01!